Terug naar catalogus

STARLINK-4439

ActiefCommunicatieSSO
NORAD 53498·PAYLOAD·🇺🇸 United States

Gelanceerd Aug 12, 2022 vanaf Vandenberg Space Force Base

Loading…

Volgende Passages (komende 24 uur)

TLE

VersSource: CelesTrak SupGP

Epoch: Sep 14, 2026, 22:02 UTC

1 53498C 22099AK  26257.91854167 -.00044566  00000+0 -13831-2 0  2575
2 53498  97.2865  15.6177 0001385  95.4048 244.9716 15.33468536    10

Volg STARLINK-4439 in realtime met AllMySat

Download on the App Store